Vorticity
14 13 13 13 12 12 11 10 10 10 9 8 7 7 6 6 7 7 7 7 7 7 7 7 7 7 7 7 7 7 7 7 7 7 7 6 5 3 2 1 -0 -0 -0 1 2 3 3 2 -0 1 4 7 6 5 4 5 7 8 7 6 5 6 6 7 7 7 7 8 8
15 14 13 13 13 12 12 11 12 12 12 11 9 8 7 7 7 7 7 7 7 7 7 7 7 7 7 7 7 7 7 7 7 7 7 7 6 6 4 3 2 2 2 2 2 3 3 2 -2 -3 -1 4 7 8 8 7 5 4 3 3 4 5 6 7 7 8 8 8 7
16 15 15 14 14 13 12 12 12 12 13 12 11 10 8 8 7 7 7 7 7 7 7 7 8 8 8 8 7 7 7 7 7 7 7 6 6 6 6 6 5 4 4 4 4 3 3 3 2 -0 -1 0 4 5 5 4 2 1 1 3 4 5 6 7 7 7 7 7 7
15 16 16 16 15 14 13 12 12 12 13 13 12 11 10 9 8 8 7 7 7 7 7 7 7 8 8 8 7 7 7 7 6 7 7 7 7 6 6 6 6 6 6 6 5 4 3 1 6 5 1 -2 -2 0 1 2 1 1 3 4 5 6 6 7 7 7 7 8 8
13 14 15 16 16 16 15 14 13 13 13 13 13 12 11 10 9 8 8 8 8 7 7 7 7 7 8 8 7 7 7 7 7 7 7 7 7 7 7 7 7 7 7 6 6 5 4 4 1 0 1 2 1 1 2 2 3 4 4 4 6 6 6 6 6 7 8 8 8
11 12 13 14 15 15 15 14 14 13 13 14 14 13 12 11 10 10 9 8 8 7 7 6 7 7 8 8 7 7 7 7 7 7 7 8 8 8 8 8 7 7 7 7 6 6 5 5 6 6 6 5 4 3 2 2 4 5 5 5 6 6 6 6 6 7 7 7 8
9 10 10 11 12 13 14 14 14 13 14 14 14 14 13 12 11 10 10 9 8 8 7 6 7 7 7 7 7 7 7 7 7 7 7 7 8 8 8 7 7 7 7 7 6 6 6 6 7 7 7 7 6 4 2 2 2 3 5 6 6 6 5 6 6 7 7 7 7
9 8 8 9 10 11 12 12 13 13 14 14 15 15 14 13 12 11 10 10 9 8 8 7 7 7 7 7 7 7 7 7 7 7 7 7 7 8 8 7 7 7 7 6 6 6 7 7 7 6 6 7 6 5 4 2 2 3 3 4 4 5 5 5 6 6 7 7 7
10 9 8 8 8 9 10 11 12 13 13 14 15 15 14 14 13 12 11 11 10 9 9 8 7 7 7 8 8 7 7 7 7 7 7 7 7 8 8 8 7 7 6 6 6 7 7 7 7 6 6 5 5 5 4 4 4 4 4 3 3 3 4 5 5 6 6 6 6
11 10 9 9 9 9 9 10 11 12 12 13 14 14 15 15 14 13 12 12 11 10 10 9 8 8 8 8 8 8 8 7 7 7 7 7 7 8 8 8 8 7 8 8 8 8 8 9 9 8 7 6 5 5 5 6 6 6 5 4 4 4 4 4 4 4 4 5 5
12 12 11 10 10 10 9 9 10 10 11 12 13 14 15 15 15 14 13 13 12 12 11 10 9 9 8 8 8 8 8 7 7 7 7 7 7 7 8 8 8 8 9 11 9 8 9 10 9 8 7 6 6 6 6 7 7 7 6 5 4 4 4 4 4 3 3 4 4
13 13 13 12 11 11 10 10 9 9 10 11 12 13 14 15 15 15 14 14 13 13 12 11 10 10 9 9 9 9 8 8 7 7 7 7 7 7 8 8 8 7 5 2 6 7 7 7 7 7 7 7 6 6 6 6 6 5 5 4 4 4 4 4 4 4 4 4 3
13 14 14 14 13 12 11 10 10 10 10 10 11 12 13 14 14 15 15 14 14 13 13 12 11 11 10 10 10 9 9 8 8 7 7 7 7 7 8 8 8 9 10 9 8 7 6 6 6 6 7 7 7 8 8 8 7 5 4 4 4 4 4 4 4 4 4 4 3
13 14 14 14 14 14 13 12 11 11 10 10 11 11 12 12 13 14 14 14 14 14 13 13 12 12 11 10 10 10 10 9 8 8 8 7 7 7 7 8 8 8 8 8 8 7 6 6 6 6 6 6 6 6 6 6 6 6 6 5 5 5 4 4 4 4 4 4 4
14 14 14 15 15 15 15 14 13 12 12 11 11 11 11 11 12 13 13 14 14 14 14 13 13 12 12 11 11 10 10 10 9 8 8 8 8 7 7 8 8 8 8 8 8 7 7 6 6 6 6 7 7 6 6 6 7 7 7 7 6 6 5 4 4 4 4 4 4
16 15 14 15 16 16 16 16 15 14 13 13 12 11 11 11 11 12 13 13 13 13 13 13 13 12 12 12 11 11 10 10 10 9 9 8 8 8 7 7 8 8 8 8 8 8 7 7 6 6 7 8 8 8 8 7 7 7 7 7 6 6 5 5 4 4 4 4 5
18 16 15 15 16 16 17 17 17 16 15 14 13 12 11 11 11 11 12 12 12 12 13 13 13 12 12 12 12 11 11 10 10 10 9 9 8 8 7 7 7 7 7 8 8 8 8 8 7 8 9 9 9 9 8 8 7 7 6 6 6 5 5 5 5 4 5 5 5
19 18 16 16 16 16 17 18 18 17 17 15 14 13 12 11 11 11 11 12 12 12 12 12 12 12 12 11 11 11 11 11 10 10 10 9 8 8 7 7 7 7 7 7 8 8 9 9 10 9 9 8 8 8 8 7 7 6 6 6 6 5 5 5 5 5 5 5 5
20 19 18 16 16 16 17 18 18 18 17 16 15 14 13 12 11 11 11 11 11 12 12 11 11 11 11 10 10 10 11 11 10 10 10 9 8 8 8 7 7 7 7 8 8 8 9 10 10 10 8 7 7 7 7 7 7 6 6 6 6 6 6 6 6 5 5 4 4
21 20 18 17 16 16 16 17 17 18 18 17 16 15 14 12 11 11 11 11 11 12 11 11 11 11 11 11 10 10 11 11 10 10 10 9 9 9 8 8 8 8 8 8 8 9 9 9 10 9 9 8 7 7 7 7 7 7 7 7 7 6 6 6 6 5 5 5 5
21 20 19 18 17 16 16 16 17 18 18 18 17 16 15 13 12 12 12 12 11 11 11 11 10 10 10 11 10 10 10 10 10 10 10 10 10 9 9 9 8 8 9 9 9 9 8 8 8 8 8 8 8 7 7 7 7 7 7 7 7 7 6 6 6 6 6 6 6
21 20 19 18 17 17 16 16 17 18 18 18 18 17 16 15 14 14 13 12 11 11 11 11 10 10 10 10 10 10 10 10 10 10 10 10 10 10 9 9 9 9 9 9 9 8 8 8 8 8 8 8 8 8 7 7 7 7 7 7 7 6 6 6 6 6 6 7 7
22 21 20 19 18 17 16 16 17 17 18 18 17 16 16 16 16 14 12 11 11 11 11 11 10 10 10 9 9 9 9 9 9 10 10 10 10 10 10 10 9 9 9 9 8 8 8 7 7 7 7 7 7 7 7 7 7 7 7 7 7 7 7 7 7 7 7 7 8
22 21 20 19 18 17 16 16 16 16 17 17 17 16 16 17 15 13 12 11 12 12 11 11 11 10 10 9 8 8 8 8 8 9 9 10 9 9 10 10 10 10 9 9 8 8 7 7 7 6 6 7 7 7 7 7 7 7 7 7 7 7 7 7 8 8 8 8 8
22 22 21 20 18 17 16 15 16 16 16 16 16 17 17 17 16 15 15 14 13 13 12 12 12 11 10 10 9 9 9 9 8 9 9 9 9 10 10 10 10 10 9 8 8 7 7 7 7 6 6 6 6 7 7 7 7 7 7 7 7 8 8 8 8 8 8 8 8
23 22 22 20 19 17 16 15 16 16 17 16 16 16 17 18 17 16 16 16 15 14 13 12 13 13 13 12 11 11 11 11 10 10 10 10 10 10 10 10 10 10 9 8 8 7 7 7 7 7 7 7 7 7 7 7 8 8 8 8 8 8 8 8 8 8 9 8 8
23 23 22 21 19 18 16 15 14 15 16 17 17 17 18 19 18 17 17 18 17 16 15 14 13 14 15 15 14 13 13 13 13 12 12 11 11 11 11 10 10 9 8 8 7 7 7 8 8 8 8 8 8 8 8 8 8 8 9 9 9 8 8 8 8 8 8 8 7
22 22 22 20 19 18 17 15 13 13 15 16 16 16 16 17 18 18 18 17 19 19 18 18 18 17 16 15 14 14 13 13 13 13 13 12 12 11 10 9 9 8 8 7 8 8 8 8 9 9 9 8 9 9 9 9 9 9 8 8 8 8 8 8 8 7 7 7 7
22 22 21 20 19 18 16 14 12 10 11 13 14 14 15 15 16 16 16 16 15 15 16 16 15 14 14 13 13 13 13 13 12 12 11 11 10 10 9 8 8 8 8 8 8 9 9 9 9 9 9 9 9 8 8 8 8 8 8 8 7 7 7 7 7 7 7 7 7
22 22 21 20 18 18 17 16 12 10 10 10 10 11 11 12 13 13 13 12 12 12 12 12 12 12 12 12 12 11 11 11 10 9 8 8 8 8 8 7 7 8 8 8 9 9 9 9 9 9 9 8 8 8 8 7 7 7 7 7 7 7 7 7 7 7 7 6 6
21 22 22 21 20 19 17 14 12 11 11 10 9 8 9 9 10 10 10 10 11 11 11 11 11 11 11 10 10 10 9 8 8 7 7 7 7 7 7 7 8 8 9 9 9 10 10 9 9 8 8 8 7 7 7 7 7 7 7 7 7 7 7 7 7 6 6 6 5
20 21 22 22 21 18 16 14 15 14 12 10 8 8 8 8 8 8 8 9 9 9 10 10 11 11 10 10 9 9 8 8 8 8 8 8 8 8 8 9 9 9 9 10 10 9 9 8 8 8 7 7 7 7 7 7 7 7 7 7 7 7 7 7 6 6 6 6 5
17 18 20 20 18 17 16 16 15 14 12 10 9 8 8 8 7 7 7 7 8 8 9 10 10 10 10 9 9 9 9 9 9 10 10 10 10 10 10 10 10 10 10 9 9 8 8 7 7 7 6 6 6 6 7 7 7 7 7 7 7 7 6 6 6 6 6 6 6
12 13 15 16 16 16 16 15 15 14 12 11 10 9 8 8 7 7 6 6 6 7 7 8 9 9 9 9 9 9 9 10 10 10 11 11 11 11 11 11 10 10 9 9 8 7 7 7 6 6 6 6 7 7 7 7 7 7 7 7 7 6 6 6 6 6 6 6 6
12 11 12 13 14 14 14 14 14 13 12 11 10 9 8 7 7 7 7 7 7 7 8 8 9 9 9 10 10 10 10 10 10 11 11 11 11 11 11 10 10 9 8 8 7 7 7 6 6 6 7 7 7 7 7 7 7 7 7 6 6 6 6 6 6 6 6 6 6
12 12 12 12 12 12 12 12 12 12 12 11 10 9 9 8 8 8 8 8 8 8 9 9 9 10 10 10 10 10 10 10 10 10 10 10 10 10 9 9 9 8 8 7 7 7 7 7 7 7 7 7 7 7 7 7 7 7 6 6 6 6 6 6 6 6 6 6 8
12 12 12 12 12 11 11 11 11 12 12 12 12 11 11 10 10 10 10 9 9 9 9 9 10 10 10 10 10 11 11 10 10 10 10 10 9 9 9 8 8 8 8 8 7 7 7 7 7 7 7 7 7 7 7 7 6 6 6 6 6 6 6 6 6 7 8 10 13
12 12 12 12 12 11 11 11 11 12 12 13 13 13 13 13 12 12 11 10 10 10 10 10 10 11 11 11 11 11 11 11 10 10 10 9 9 9 8 8 8 8 8 8 8 7 7 7 7 7 7 7 7 7 7 6 6 6 6 6 6 6 6 7 9 12 15 18 20
12 12 12 12 12 12 12 12 12 13 13 14 15 15 15 14 14 13 13 12 12 12 12 12 12 12 12 12 11 11 10 10 10 9 9 9 9 9 8 8 8 8 8 8 8 7 7 7 7 7 7 7 7 7 7 6 6 6 6 6 7 8 10 14 17 20 21 22 20
12 12 12 12 12 12 12 12 13 13 14 14 14 15 15 15 15 14 14 13 13 13 12 12 12 11 11 10 10 10 9 9 8 8 8 8 8 8 8 8 8 8 8 8 8 7 7 7 7 7 7 7 7 6 6 6 6 7 8 10 13 16 19 21 22 21 20 17 15
13 13 13 13 13 12 12 12 12 13 13 13 13 13 13 14 14 14 13 13 13 12 12 11 10 10 10 9 8 8 8 8 7 7 7 7 7 7 7 7 8 8 8 8 8 7 7 8 7 7 7 6 6 6 7 8 10 13 16 18 20 22 22 20 18 15 13 11 10
Height
5648 5650 5653 5655 5658 5661 5664 5667 5670 5672 5674 5675 5677 5678 5679 5681 5682 5684 5686 5688 5691 5693 5694 5696 5698 5699 5701 5703 5704 5705 5706 5707 5708 5710 5711 5713 5715 5716 5716 5717 5718 5718 5719 5720 5721 5721 5722 5723 5723 5723 5724 5725 5726 5727 5727 5727 5728 5729 5729 5729 5729 5729 5730 5730 5730 5731 5731 5731 5732
5644 5646 5648 5651 5654 5657 5660 5663 5665 5668 5670 5671 5673 5674 5675 5677 5678 5680 5682 5685 5687 5689 5691 5693 5694 5696 5698 5699 5700 5701 5703 5704 5705 5706 5708 5709 5710 5712 5713 5714 5715 5716 5717 5718 5718 5718 5719 5720 5721 5721 5721 5722 5723 5724 5724 5724 5725 5726 5727 5727 5727 5727 5727 5728 5728 5728 5728 5729 5729
5639 5642 5645 5648 5651 5653 5656 5658 5661 5663 5665 5667 5668 5669 5671 5673 5674 5676 5678 5681 5683 5685 5688 5689 5691 5693 5694 5695 5697 5698 5699 5700 5701 5703 5704 5705 5707 5708 5710 5711 5712 5713 5713 5714 5715 5716 5717 5718 5718 5719 5719 5719 5720 5720 5721 5722 5723 5723 5723 5724 5724 5725 5725 5725 5725 5725 5726 5726 5726
5636 5639 5642 5644 5647 5649 5651 5653 5656 5658 5660 5662 5664 5665 5667 5668 5670 5673 5675 5677 5679 5682 5684 5686 5687 5689 5690 5692 5693 5694 5695 5697 5698 5699 5701 5702 5703 5705 5707 5707 5709 5710 5710 5711 5712 5713 5714 5715 5716 5716 5717 5716 5717 5717 5718 5718 5719 5720 5720 5721 5721 5722 5722 5722 5722 5723 5723 5723 5723
5633 5635 5638 5640 5642 5644 5646 5648 5651 5653 5656 5658 5659 5661 5663 5664 5667 5669 5671 5673 5676 5678 5680 5682 5684 5686 5687 5688 5690 5691 5692 5693 5695 5696 5698 5699 5700 5702 5703 5704 5706 5707 5708 5708 5709 5710 5711 5712 5713 5713 5713 5714 5714 5714 5714 5715 5716 5717 5717 5718 5718 5719 5719 5719 5720 5720 5720 5720 5720
5629 5632 5634 5636 5638 5639 5642 5644 5646 5648 5651 5653 5655 5657 5659 5661 5663 5665 5667 5669 5672 5674 5676 5679 5681 5682 5684 5685 5686 5688 5689 5690 5692 5693 5694 5696 5697 5698 5700 5702 5703 5704 5705 5706 5706 5707 5708 5709 5710 5710 5710 5711 5711 5711 5711 5712 5713 5713 5714 5714 5715 5716 5716 5717 5717 5717 5717 5717 5717
5625 5628 5629 5631 5633 5635 5638 5640 5642 5644 5646 5649 5651 5653 5655 5657 5659 5661 5663 5666 5668 5670 5673 5675 5677 5679 5680 5682 5683 5684 5685 5687 5688 5690 5691 5693 5694 5695 5697 5698 5700 5701 5702 5703 5703 5704 5705 5706 5707 5708 5708 5708 5709 5709 5709 5709 5709 5710 5711 5711 5712 5712 5713 5713 5713 5714 5714 5714 5714
5621 5623 5625 5627 5629 5631 5633 5636 5638 5640 5642 5644 5647 5648 5651 5653 5655 5658 5660 5662 5665 5667 5669 5671 5673 5675 5677 5678 5679 5681 5683 5684 5685 5687 5688 5690 5691 5693 5694 5695 5697 5698 5698 5700 5701 5702 5703 5703 5704 5704 5705 5705 5706 5706 5706 5706 5707 5707 5708 5708 5708 5709 5710 5710 5710 5711 5711 5711 5711
5617 5619 5621 5623 5625 5628 5630 5632 5634 5636 5638 5640 5642 5645 5647 5650 5652 5654 5656 5659 5661 5663 5666 5668 5670 5672 5673 5675 5676 5678 5679 5681 5683 5684 5685 5687 5688 5689 5691 5693 5693 5694 5695 5697 5698 5699 5700 5701 5702 5702 5702 5703 5703 5703 5703 5704 5704 5704 5705 5705 5705 5706 5706 5707 5707 5707 5708 5708 5708
5613 5615 5617 5620 5622 5624 5626 5628 5630 5632 5634 5636 5638 5641 5644 5646 5648 5651 5653 5655 5658 5660 5663 5665 5667 5668 5670 5672 5673 5674 5676 5678 5679 5681 5682 5684 5685 5686 5688 5689 5690 5691 5693 5694 5695 5696 5697 5698 5699 5699 5698 5699 5700 5700 5701 5701 5702 5702 5702 5702 5703 5703 5703 5703 5704 5704 5704 5705 5705
5609 5611 5614 5616 5618 5621 5623 5625 5627 5628 5631 5633 5635 5638 5640 5643 5645 5647 5649 5652 5654 5657 5659 5661 5663 5665 5667 5668 5670 5672 5673 5675 5676 5678 5679 5681 5682 5683 5685 5686 5687 5688 5690 5692 5693 5693 5694 5694 5695 5695 5696 5697 5697 5698 5698 5698 5699 5699 5699 5699 5700 5700 5700 5700 5700 5701 5701 5701 5701
5605 5608 5610 5613 5615 5617 5619 5621 5623 5625 5628 5630 5633 5635 5637 5639 5642 5644 5646 5649 5651 5653 5655 5658 5660 5662 5663 5665 5667 5668 5670 5672 5673 5675 5676 5678 5679 5680 5682 5683 5684 5686 5688 5689 5690 5691 5691 5691 5692 5693 5693 5694 5695 5695 5696 5696 5697 5697 5697 5697 5697 5698 5698 5698 5698 5698 5698 5698 5698
5602 5604 5607 5609 5611 5613 5616 5618 5620 5622 5625 5628 5630 5632 5634 5636 5638 5641 5643 5646 5648 5650 5652 5655 5657 5658 5660 5662 5663 5665 5667 5668 5670 5672 5673 5674 5676 5677 5679 5680 5681 5683 5685 5686 5686 5687 5688 5688 5689 5690 5691 5692 5693 5693 5693 5693 5693 5694 5694 5694 5694 5694 5695 5695 5695 5695 5695 5695 5695
5598 5601 5603 5605 5608 5610 5612 5614 5617 5620 5622 5625 5627 5629 5631 5633 5635 5638 5640 5643 5645 5647 5649 5651 5653 5655 5657 5658 5660 5662 5664 5665 5667 5669 5670 5672 5673 5674 5676 5677 5678 5680 5681 5682 5683 5683 5685 5685 5686 5687 5688 5689 5689 5689 5689 5689 5690 5690 5691 5691 5691 5691 5692 5692 5692 5692 5692 5691 5691
5595 5598 5600 5602 5604 5607 5609 5612 5614 5617 5619 5622 5623 5626 5628 5630 5633 5635 5638 5640 5642 5644 5646 5648 5650 5652 5653 5655 5657 5659 5661 5662 5664 5666 5667 5668 5670 5672 5673 5674 5675 5676 5677 5678 5679 5681 5682 5682 5683 5684 5685 5686 5686 5686 5686 5687 5687 5687 5687 5688 5688 5688 5688 5688 5688 5688 5688 5688 5688
5592 5594 5596 5599 5601 5603 5606 5608 5611 5614 5616 5618 5620 5623 5625 5627 5629 5632 5635 5637 5639 5641 5643 5645 5647 5648 5650 5652 5654 5656 5658 5659 5661 5663 5664 5666 5667 5668 5670 5671 5672 5673 5674 5675 5677 5678 5678 5679 5680 5682 5682 5682 5683 5683 5683 5683 5684 5684 5684 5684 5685 5685 5685 5685 5685 5685 5685 5685 5685
5588 5591 5593 5596 5598 5600 5603 5605 5608 5611 5613 5615 5617 5620 5622 5624 5627 5630 5632 5634 5636 5638 5640 5642 5644 5646 5648 5649 5651 5653 5655 5657 5658 5660 5661 5663 5664 5666 5667 5668 5669 5670 5672 5673 5674 5675 5675 5676 5678 5678 5679 5679 5679 5680 5680 5680 5681 5681 5681 5682 5682 5682 5682 5682 5682 5682 5682 5682 5682
5585 5588 5590 5593 5595 5597 5600 5603 5605 5608 5610 5612 5614 5617 5619 5622 5625 5627 5629 5631 5633 5635 5637 5639 5641 5643 5645 5646 5648 5650 5652 5653 5655 5657 5658 5660 5661 5663 5664 5665 5667 5668 5669 5670 5671 5672 5673 5674 5674 5675 5675 5676 5677 5677 5677 5678 5678 5678 5678 5678 5679 5679 5679 5679 5679 5679 5679 5678 5678
5582 5584 5587 5589 5592 5594 5597 5599 5602 5604 5607 5609 5612 5614 5616 5619 5622 5624 5626 5628 5630 5632 5634 5636 5638 5640 5642 5643 5645 5647 5649 5651 5652 5654 5656 5657 5658 5660 5661 5663 5664 5665 5666 5667 5668 5669 5669 5670 5671 5672 5672 5673 5673 5674 5674 5674 5675 5675 5675 5676 5676 5676 5676 5676 5676 5676 5675 5675 5675
5579 5582 5584 5586 5589 5591 5594 5597 5599 5601 5604 5606 5609 5611 5614 5617 5619 5621 5623 5625 5628 5629 5631 5633 5635 5637 5639 5641 5643 5644 5646 5648 5650 5651 5653 5654 5656 5657 5658 5660 5661 5662 5663 5664 5665 5666 5667 5667 5668 5668 5669 5670 5670 5671 5671 5672 5672 5672 5673 5673 5673 5673 5673 5673 5673 5672 5672 5672 5672
5577 5579 5581 5583 5586 5589 5592 5594 5596 5599 5601 5604 5606 5609 5612 5615 5617 5619 5620 5623 5624 5627 5629 5630 5632 5634 5636 5638 5640 5642 5643 5645 5647 5649 5650 5652 5653 5654 5656 5657 5658 5659 5660 5661 5662 5663 5663 5664 5665 5666 5666 5667 5667 5668 5668 5668 5669 5669 5669 5670 5670 5670 5670 5669 5669 5669 5669 5668 5668
5574 5576 5578 5581 5584 5586 5589 5591 5594 5597 5599 5601 5604 5606 5609 5612 5614 5616 5618 5620 5622 5624 5626 5628 5629 5631 5633 5635 5637 5639 5641 5643 5644 5646 5648 5649 5651 5652 5653 5654 5656 5657 5658 5658 5659 5660 5661 5661 5662 5663 5663 5663 5664 5664 5665 5666 5666 5666 5666 5666 5666 5666 5666 5666 5666 5666 5665 5665 5665
5572 5574 5576 5579 5581 5584 5587 5589 5592 5594 5597 5599 5601 5604 5607 5610 5611 5613 5615 5617 5619 5621 5623 5624 5627 5628 5630 5632 5634 5636 5638 5640 5642 5643 5645 5647 5648 5649 5650 5652 5653 5654 5655 5655 5656 5657 5658 5658 5659 5659 5660 5661 5661 5661 5662 5662 5663 5663 5663 5663 5663 5663 5663 5663 5663 5662 5662 5662 5662
5570 5572 5574 5577 5579 5582 5584 5587 5589 5592 5594 5597 5600 5603 5605 5607 5608 5610 5612 5614 5616 5618 5620 5622 5624 5626 5628 5630 5632 5634 5636 5638 5639 5641 5643 5644 5645 5646 5648 5649 5650 5651 5652 5652 5653 5654 5655 5655 5656 5656 5657 5658 5658 5658 5659 5659 5659 5659 5660 5660 5660 5660 5659 5659 5659 5659 5659 5658 5658
5568 5570 5573 5575 5578 5580 5582 5585 5587 5590 5592 5595 5597 5600 5602 5604 5606 5608 5610 5612 5614 5616 5618 5619 5622 5623 5625 5627 5629 5631 5633 5635 5637 5638 5640 5641 5642 5643 5645 5646 5647 5648 5648 5649 5650 5651 5652 5652 5653 5653 5654 5654 5655 5655 5655 5655 5656 5656 5656 5656 5656 5656 5656 5656 5656 5656 5655 5655 5655
5567 5569 5571 5573 5576 5578 5581 5583 5586 5588 5591 5593 5595 5598 5600 5601 5603 5605 5607 5609 5611 5613 5615 5617 5619 5621 5623 5625 5627 5629 5631 5632 5634 5635 5637 5638 5639 5641 5642 5643 5644 5645 5646 5646 5647 5648 5648 5649 5650 5650 5651 5651 5651 5652 5652 5652 5652 5653 5653 5653 5653 5653 5653 5653 5653 5653 5652 5652 5651
5566 5568 5570 5572 5575 5577 5580 5582 5584 5586 5589 5592 5594 5596 5597 5599 5601 5603 5605 5607 5609 5611 5613 5615 5617 5619 5621 5623 5624 5626 5628 5629 5631 5633 5634 5635 5637 5638 5639 5640 5641 5642 5643 5643 5644 5645 5646 5646 5647 5647 5648 5648 5648 5648 5648 5649 5649 5649 5650 5650 5650 5650 5650 5650 5649 5649 5648 5648 5648
5565 5567 5569 5571 5573 5576 5578 5581 5583 5585 5588 5590 5592 5593 5594 5596 5599 5601 5603 5605 5607 5609 5611 5613 5615 5617 5618 5620 5622 5623 5625 5627 5628 5630 5631 5633 5634 5635 5636 5637 5638 5639 5640 5641 5642 5643 5643 5643 5644 5644 5644 5644 5645 5645 5645 5646 5646 5647 5647 5647 5647 5647 5647 5646 5646 5645 5645 5644 5643
5563 5566 5568 5570 5572 5574 5576 5579 5582 5583 5585 5587 5589 5591 5593 5595 5597 5599 5601 5603 5605 5607 5609 5611 5612 5614 5616 5618 5619 5621 5622 5624 5626 5627 5628 5630 5631 5632 5633 5635 5636 5637 5638 5638 5639 5640 5640 5640 5641 5641 5641 5641 5642 5642 5643 5643 5643 5643 5643 5644 5643 5643 5643 5643 5642 5642 5641 5640 5640
5563 5564 5567 5569 5571 5573 5575 5578 5579 5581 5583 5585 5587 5589 5592 5594 5596 5598 5599 5602 5604 5605 5607 5608 5610 5612 5614 5615 5617 5618 5620 5622 5623 5624 5626 5627 5628 5630 5631 5633 5634 5635 5636 5636 5637 5637 5637 5637 5638 5638 5638 5638 5638 5639 5639 5640 5640 5640 5641 5640 5640 5640 5639 5639 5638 5638 5637 5636 5636
5562 5564 5566 5568 5570 5573 5574 5576 5578 5579 5582 5584 5586 5588 5590 5592 5594 5596 5598 5600 5602 5603 5604 5606 5608 5610 5612 5613 5615 5617 5618 5619 5621 5622 5624 5625 5626 5628 5629 5630 5632 5633 5633 5634 5634 5634 5634 5634 5634 5634 5635 5635 5636 5636 5637 5637 5637 5637 5637 5637 5637 5636 5635 5635 5634 5633 5633 5633 5632
5562 5563 5565 5568 5570 5572 5573 5575 5577 5579 5581 5583 5585 5587 5589 5591 5592 5594 5596 5598 5599 5601 5603 5605 5607 5608 5609 5611 5613 5614 5616 5618 5619 5620 5621 5623 5624 5625 5627 5628 5629 5630 5631 5631 5631 5631 5631 5631 5631 5632 5632 5633 5633 5633 5633 5634 5634 5634 5634 5633 5633 5632 5631 5631 5630 5630 5629 5628 5628
5563 5564 5566 5567 5569 5571 5572 5574 5576 5578 5580 5582 5583 5585 5587 5589 5591 5593 5594 5596 5598 5599 5601 5603 5605 5606 5608 5610 5611 5613 5614 5616 5617 5618 5619 5621 5622 5623 5625 5626 5627 5628 5628 5628 5628 5628 5628 5628 5628 5629 5629 5630 5630 5630 5630 5631 5631 5630 5630 5629 5629 5628 5628 5627 5626 5626 5625 5624 5623
5563 5565 5567 5567 5568 5570 5571 5573 5575 5577 5579 5581 5582 5584 5586 5588 5589 5591 5593 5594 5596 5598 5600 5602 5603 5605 5606 5608 5609 5611 5612 5613 5615 5616 5618 5619 5620 5621 5623 5623 5624 5625 5625 5625 5625 5624 5625 5625 5625 5626 5626 5627 5627 5627 5627 5627 5627 5627 5626 5626 5625 5624 5624 5623 5623 5622 5621 5620 5619
5562 5564 5565 5566 5568 5569 5571 5573 5574 5576 5578 5580 5582 5583 5585 5587 5588 5590 5592 5593 5595 5597 5598 5600 5602 5603 5604 5606 5608 5609 5610 5612 5613 5614 5615 5617 5618 5619 5620 5621 5621 5622 5622 5622 5622 5622 5622 5622 5623 5623 5623 5623 5624 5624 5624 5624 5623 5623 5623 5622 5621 5621 5620 5620 5619 5618 5617 5616 5615
5561 5562 5564 5566 5567 5569 5570 5572 5574 5576 5577 5579 5581 5582 5584 5586 5587 5589 5590 5592 5594 5595 5597 5598 5600 5601 5603 5604 5606 5607 5608 5609 5611 5612 5613 5614 5615 5616 5617 5618 5619 5619 5619 5619 5619 5619 5619 5619 5619 5620 5620 5621 5621 5621 5620 5620 5620 5619 5619 5618 5618 5617 5617 5616 5615 5614 5613 5612 5611
5560 5562 5563 5565 5567 5568 5570 5572 5573 5575 5576 5578 5580 5581 5583 5585 5586 5588 5589 5591 5593 5594 5596 5597 5598 5600 5601 5603 5604 5605 5606 5607 5608 5610 5611 5612 5613 5614 5614 5615 5616 5617 5617 5617 5616 5616 5616 5616 5617 5617 5617 5618 5618 5617 5617 5617 5617 5616 5616 5615 5614 5614 5613 5612 5611 5610 5609 5608 5607
5560 5562 5563 5565 5566 5568 5569 5571 5572 5574 5575 5577 5578 5580 5582 5583 5585 5587 5588 5590 5591 5593 5594 5596 5597 5598 5599 5601 5602 5603 5604 5605 5606 5607 5608 5609 5610 5611 5612 5613 5613 5614 5614 5614 5614 5613 5613 5613 5614 5614 5614 5614 5614 5614 5614 5614 5613 5613 5612 5612 5611 5610 5609 5608 5608 5607 5605 5604 5603
5560 5561 5563 5564 5566 5567 5569 5570 5572 5573 5574 5576 5578 5579 5581 5582 5584 5585 5587 5588 5590 5591 5593 5594 5595 5597 5598 5599 5600 5601 5602 5603 5603 5605 5606 5607 5608 5608 5609 5610 5610 5611 5611 5612 5611 5611 5610 5610 5611 5611 5611 5611 5611 5611 5611 5610 5610 5609 5609 5608 5607 5607 5606 5605 5604 5603 5602 5600 5599
5560 5561 5563 5564 5565 5567 5568 5569 5571 5572 5573 5575 5576 5578 5579 5581 5582 5584 5585 5587 5588 5590 5591 5592 5593 5594 5596 5597 5598 5598 5599 5600 5601 5602 5603 5604 5605 5606 5606 5607 5607 5608 5608 5608 5608 5608 5608 5608 5608 5608 5608 5608 5608 5608 5608 5607 5607 5606 5605 5605 5604 5603 5602 5601 5600 5599 5598 5597 5596
5559 5561 5562 5563 5565 5566 5568 5569 5570 5571 5573 5574 5575 5577 5578 5579 5581 5583 5584 5585 5587 5588 5589 5590 5592 5593 5593 5594 5595 5596 5597 5598 5599 5600 5601 5602 5602 5603 5603 5604 5604 5605 5605 5605 5605 5605 5605 5605 5605 5605 5605 5605 5605 5605 5604 5604 5603 5603 5602 5601 5600 5599 5598 5598 5597 5596 5595 5593 5592